This demonstration page uses our WeatherBlox Daily Observations layout. Learn more.

Left ArrowRight Arrow

39.01783, -85.05884

Hourly Observations for August 27, 2016

Temp ( °F °C ) Dew Point ( °F °C ) Humidity (%) Winds ( mph kmh ) Pressure ( in mb ) Visibility ( mi km ) Precip ( " mm )
12:52 am 00:52 Cloudy 76 24.4 72 22.2 88 88 N N/A 30.07 1018 10 16 N/A
1:52 am 01:52 Cloudy 75 23.9 72 22.2 90 90 N N/A 30.08 1019 10 16 N/A
2:52 am 02:52 Cloudy 72 22.2 71 21.7 97 97 N N/A 30.08 1019 10 16 N/A
3:52 am 03:52 Cloudy 75 23.9 72 22.2 90 90 N N/A 30.06 1018 7 11 N/A
4:52 am 04:52 Cloudy 74 23.3 72 22.2 94 94 N N/A 30.07 1018 7 11 N/A
5:52 am 05:52 Cloudy 74 23.3 73 22.8 97 97 N N/A 30.06 1018 8 13 N/A
6:52 am 06:52 Cloudy 75 24 73 23 94 94 ESE 5 7 30.06 1018 10 16 N/A
7:52 am 07:52 Mostly Cloudy with Mist and Fog 75 23.9 73 22.8 94 94 N N/A 30.08 1019 4 6 N/A
8:52 am 08:52 Mostly Cloudy with Mist and Fog 78 25.6 74 23.3 87 87 ESE 5 7 30.09 1019 6 10 N/A
9:52 am 09:52 Partly Cloudy 82 27.8 74 23.3 77 77 SSE 8 13 30.10 1019 7 11 N/A
10:52 am 10:52 Partly Cloudy 85 29.4 74 23.3 70 70 SE 7 11 30.10 1019 8 13 N/A
11:52 am 11:52 Partly Cloudy 87 30.6 74 23.3 65 65 S 7 11 30.09 1019 9 14 N/A
12:52 pm 12:52 Partly Cloudy 89 31.7 74 23.3 61 61 S 10 17 30.07 1018 10 16 N/A
1:52 pm 13:52 Cloudy 89 31.7 73 22.8 59 59 SSW 7 11 30.07 1018 10 16 N/A
2:10 pm 14:10 Cloudy 82 28 72 22 70 70 WNW 29 46 30.09 1019 10 16 N/A
2:21 pm 14:21 Cloudy 75 24 70 21 83 83 NW 23 37 30.09 1019 10 16 N/A
2:33 pm 14:33 Cloudy with Thunderstorms 75 24 70 21 83 83 NW 23 37 30.12 1020 10 16 N/A
2:52 pm 14:52 Cloudy with Thunderstorms 74 23.3 72 22.2 94 94 NNW 13 20 30.12 1020 5 8 0.01 0.25
3:06 pm 15:06 Cloudy with Light Rain 73 23 72 22 94 94 NNW 8 13 30.12 1020 9 14 N/A
3:52 pm 15:52 Mostly Cloudy with Light Rain 75 23.9 72 22.2 90 90 N 3 6 30.10 1019 10 16 0.01 0.25
4:52 pm 16:52 Mostly Cloudy 78 25.6 73 22.8 85 85 E 5 7 30.07 1018 10 16 N/A
5:52 pm 17:52 Mostly Cloudy 80 26.7 74 23.3 82 82 E 8 13 30.07 1018 10 16 N/A
6:52 pm 18:52 Partly Cloudy 80 26.7 72 22.2 76 76 ESE 5 7 30.07 1018 10 16 N/A
7:52 pm 19:52 Partly Cloudy 78 25.6 73 22.8 85 85 ESE 7 11 30.08 1019 10 16 N/A
8:52 pm 20:52 Partly Cloudy 77 25 73 22.8 88 88 ESE 7 11 30.09 1019 10 16 N/A
9:52 pm 21:52 Partly Cloudy 76 24.4 73 22.8 91 91 E 3 6 30.10 1019 10 16 N/A
10:52 pm 22:52 Partly Cloudy 77 25 73 22.8 88 88 N N/A 30.11 1020 10 16 N/A
11:52 pm 23:52 Mostly Cloudy 75 24 72 22 89 89 N N/A 30.12 1020 10 16 N/A

Powered by AerisWeather